Dauntless Aviation
Greetings, Guest! To participate, [sign up for a free account] or [log in]
Airports North America United States Colorado
98CO

NCMC HELIPORT

GREELEY, CO, USA

Airport Info

Location

Latitude / Longitude: 40°24'53"N / 104°42'28"W
  40°24.9'N / 104°42.4667'W
  40.4150 / -104.7078
Elevation: 4882 ft. (estimated)
Variation: 12E (1985)
From city: 00 miles N of GREELEY, CO

Operations

Facility use: Private
Sectional chart: DENVER
Control tower: no
Boundary ARTCC: DENVER
FSS: DENVER [1-800-WX-BRIEF]
Segmented circle: no

Communications

Nearby radio navigation aids

VOR radial/distance VOR name Freq Var
GLL 233oT/8.9 GILL VORTAC 114.20 13E
DVV 353oT/31.5 MILE HIGH VORTAC 114.70 11E
BJC 33oT/36.1 JEFFCO VOR/DME 115.40 11E
DEN 357oT/36.2 DENVER VOR/DME 117.90 11E
 
NDB name Hdg/Dist Freq Var ID

Services

Runway Information

Helipad H1

Dimensions: 40 x 40 ft.
Surface: PORTLAND CEMENT CONCRETE,NO SPECIAL SURFACE TREATMENT
 

Additional Remarks

Instrument Procedures

No published instrument procedures available
Topographic chart at:
Satellite photo at:
Airport distance calculator
From:
Weather Reports

METAR

KGXY
4.2nm NE
KGXY 210615Z 00000KT 10SM CLR 04/M01 A2996 RMK AO1
KFNL
14.3nm W
KFNL 210615Z AUTO 00000KT 10SM CLR 06/01 A2996 RMK AO1
KLMO
25.8nm SW
KLMO 210615Z AUTO 33006KT 10SM SCT048 BKN075 OVC110 07/02 A2998 RMK AO2 T00650021
KEIK
28.6nm S
KEIK 210615Z AUTO 36004KT 10SM SCT050 SCT060 BKN090 03/02 A2998 RMK AO2 T00320023
KBDU
33.3nm SW
KBDU 210618Z AUTO 28005KT 10SM SCT070 BKN090 OVC110 05/01 A2997 RMK AO2
KDEN
35.0nm SE
KDEN 210553Z 16009KT 10SM FEW220 02/01 A2995 RMK AO2 SLP129 T00170006 10111 20011 58002

TAF

KDEN
35.0nm SE
KDEN 210521Z 2106/2212 18010KT P6SM FEW100 FM211500 24007KT P6SM FEW100 SCT200 FM211900 30008KT P6SM SCT080 SCT120 FM212100 01008KT P6SM SCT080 BKN120 FM220300 15008KT P6SM SCT050 BKN090 FM220600 18008KT P6SM SCT050 BKN090
KBJC
35.3nm S
KBJC 210521Z 2106/2206 VRB05KT P6SM SCT120 SCT200 FM210800 25008KT P6SM FEW060 SCT100 FM211600 28006KT P6SM FEW100 SCT200 FM211900 02008KT P6SM SCT060 BKN120 FM212300 05007KT P6SM SCT050 BKN090 FM220200 18007KT P6SM SCT050 BKN090
Safelog

 

Dauntless Aviation

© 2007-2015 Dauntless Aviation, all rights reserved
Information provided via PilotNav comes from a variety of official and unofficial data sources. As errors are possible, do not use PilotNav for primary flight planning purposes. Verify any information that you receive via PilotNav with current and canonical charts and other official documents. The material in this database is subject to database copyrights held by Dauntless Aviation and may not be copied without the express permission of Dauntless Aviation - licenses for use of part of all of this data are available for purchase; enquire via the Dauntless Aviation helpdesk. A number of mechanisms and markers exist in the database to protect against and identify infringement / copyright. Automated queries against this website are stictly prohibited, and all activity is logged and analyzed.